Cairo, Egypt

4:38 AM EET on February 24, 2018 (GMT +0200)
Cairo International Airport

Weather History for HECA - August, 2013

Change the Weather History Date:

Sunday, August 4, 2013

  Actual Average Record
Temperature  
Mean Temperature 84 °F -  
Max Temperature 92 °F 92 °F 100 °F (2003)
Min Temperature 75 °F 73 °F 69 °F (2001)
Cooling Degree Days 18    
Growing Degree Days 34 (Base 50)    
Moisture  
Dew Point 68 °F    
Average Humidity 60    
Maximum Humidity 78    
Minimum Humidity 35    
Precipitation  
Precipitation 0.00 in 0.00 in - ()
Sea Level Pressure  
Sea Level Pressure 29.80 in    
Wind  
Wind Speed 6 mph ()    
Max Wind Speed 14 mph    
Max Gust Speed -    
Visibility 5.0 miles    
Events      
Averages and records for this station are not official NWS values.
T = Trace of Precipitation, MM = Missing Value Source: Averaged Metar Reports

Daily Weather History Graph

Daily Weather History Graph

Search for Another Location

Airport or City:

Trip Planner

Search our weather history database for the weather conditions in past years. The results will help you decide how hot, cold, wet, or windy it might be!

Date:

Astronomy

Aug. 04, 2013 Rise Set
Actual Time 5:14 AM EET 6:45 PM EET
Civil Twilight 4:49 AM EET 7:11 PM EET
Nautical Twilight 4:18 AM EET 7:42 PM EET
Astronomical Twilight 3:45 AM EET 8:14 PM EET
Moon 3:00 AM EET (8/4) 4:54 PM EET (8/4)
Length of Visible Light 14h 22m
Length of Day
13h 30m
Waning Crescent, 6% of the Moon is Illuminated
Aug 4
Waning Crescent
Aug 6
New
Aug 14
First Quarter
Aug 21
Full
Aug 28
Last Quarter

Hourly Weather History & Observations

Time (EET) Temp. Heat Index Dew Point Humidity Pressure Visibility Wind Dir Wind Speed Gust Speed Precip Events Conditions
12:00 AM 78.8 °F - 69.8 °F 74% 29.83 in - North 6.9 mph - N/A   Clear
12:30 AM 78.8 °F - 69.8 °F 74% 29.83 in - North 6.9 mph - N/A   Clear
1:00 AM 78.8 °F - 69.8 °F 74% 29.83 in - NNW 6.9 mph - N/A   Clear
1:30 AM 78.8 °F - 69.8 °F 74% 29.83 in - NNW 6.9 mph - N/A   Clear
2:00 AM 78 °F - 69 °F 67% 29.82 in 6 mi North 3.5 mph - -  
2:00 AM 78.8 °F - 69.8 °F 74% 29.80 in - North 3.5 mph - N/A   Clear
2:30 AM 78.8 °F - 69.8 °F 74% 29.80 in - North 3.5 mph - N/A   Clear
3:00 AM 77.0 °F - 69.8 °F 78% 29.80 in - North 3.5 mph - N/A   Clear
3:30 AM 77.0 °F - 69.8 °F 78% 29.80 in - North 3.5 mph - N/A   Clear
4:00 AM 77.0 °F - 68.0 °F 74% 29.80 in - ENE 4.6 mph - N/A   Clear
4:30 AM 77.0 °F - 68.0 °F 74% 29.80 in 3.7 mi ENE 4.6 mph - N/A   Unknown
5:00 AM 75.2 °F - 68.0 °F 78% 29.80 in 3.7 mi NE 2.3 mph - N/A   Unknown
5:30 AM 75.2 °F - 68.0 °F 78% 29.80 in 2.5 mi NE 2.3 mph - N/A   Mist
6:00 AM 77.0 °F - 68.0 °F 74% 29.80 in 2.5 mi North 4.6 mph - N/A   Mist
6:30 AM 77.0 °F - 68.0 °F 74% 29.80 in 2.5 mi North 4.6 mph - N/A   Mist
7:00 AM 77.0 °F - 68.0 °F 74% 29.83 in 3.7 mi North 6.9 mph - N/A   Mist
7:30 AM 77.0 °F - 68.0 °F 74% 29.83 in - North 6.9 mph - N/A   Clear
8:00 AM 79 °F - 68 °F 61% 29.83 in 6 mi NNE 6.9 mph - -  
8:00 AM 78.8 °F - 68.0 °F 69% 29.83 in - NNE 6.9 mph - N/A   Clear
8:30 AM 78.8 °F - 68.0 °F 69% 29.83 in - NNE 6.9 mph - N/A   Clear
9:00 AM 80.6 °F 83.2 °F 68.0 °F 65% 29.83 in - WNW 4.6 mph - N/A   Clear
9:30 AM 82.4 °F 85.4 °F 68.0 °F 62% 29.83 in - WNW 3.5 mph - N/A   Clear
10:00 AM 84.2 °F 87.3 °F 68.0 °F 58% 29.83 in - NW 4.6 mph - N/A   Clear
10:30 AM 84.2 °F 87.3 °F 68.0 °F 58% 29.83 in - NW 4.6 mph - N/A   Clear
11:00 AM 86.0 °F 88.2 °F 66.2 °F 51% 29.83 in - NW 6.9 mph - N/A   Clear
11:30 AM 86.0 °F 88.2 °F 66.2 °F 51% 29.83 in - NW 6.9 mph - N/A   Clear
12:00 PM 87.8 °F 89.4 °F 64.4 °F 46% 29.80 in - NW 6.9 mph - N/A   Clear
12:30 PM 87.8 °F 89.4 °F 64.4 °F 46% 29.80 in - NW 6.9 mph - N/A   Clear
1:00 PM 89.6 °F 91.1 °F 64.4 °F 43% 29.80 in - NW 11.5 mph - N/A   Clear
1:30 PM 89.6 °F 91.1 °F 64.4 °F 43% 29.80 in - NW 11.5 mph - N/A   Clear
2:00 PM 91 °F - 67 °F 35% 29.78 in 6 mi West 9.2 mph - -   Scattered Clouds
2:00 PM 91.4 °F 94.0 °F 66.2 °F 43% 29.77 in 6.2 mi West 9.2 mph - N/A   Partly Cloudy
2:30 PM 91.4 °F 94.0 °F 66.2 °F 43% 29.77 in 6.2 mi West 9.2 mph - N/A   Partly Cloudy
3:00 PM 91.4 °F 94.0 °F 66.2 °F 43% 29.77 in 6.2 mi West 9.2 mph - N/A   Partly Cloudy
3:30 PM 91.4 °F 94.0 °F 66.2 °F 43% 29.77 in 6.2 mi West 9.2 mph - N/A   Partly Cloudy
4:00 PM 91.4 °F 94.0 °F 66.2 °F 43% 29.77 in 6.2 mi NNW 10.4 mph - N/A   Partly Cloudy
4:30 PM 91.4 °F 94.0 °F 66.2 °F 43% 29.77 in 6.2 mi NNW 10.4 mph - N/A   Partly Cloudy
5:00 PM 91.4 °F 92.1 °F 62.6 °F 38% 29.77 in - NNW 11.5 mph - N/A   Clear
5:30 PM 89.6 °F 93.4 °F 68.0 °F 49% 29.77 in - NW 13.8 mph - N/A   Clear
6:00 PM 89.6 °F 93.4 °F 68.0 °F 49% 29.77 in - North 10.4 mph - N/A   Clear
6:30 PM 87.8 °F 91.4 °F 68.0 °F 52% 29.77 in - North 12.7 mph - N/A   Clear
7:00 PM 86.0 °F 89.4 °F 68.0 °F 55% 29.77 in - North 12.7 mph - N/A   Clear
7:30 PM 86.0 °F 89.4 °F 68.0 °F 55% 29.77 in - NNW 13.8 mph - N/A   Clear
8:00 PM 86 °F - 66 °F 42% 29.78 in 6 mi NNW 11.5 mph - -  
8:00 PM 86.0 °F 88.2 °F 66.2 °F 51% 29.77 in - NNW 11.5 mph - N/A   Clear
8:30 PM 82.4 °F 86.3 °F 69.8 °F 66% 29.80 in - NNW 11.5 mph - N/A   Clear
9:00 PM 82.4 °F 86.3 °F 69.8 °F 66% 29.80 in - NNW 11.5 mph - N/A   Clear
9:30 PM 80.6 °F 83.9 °F 69.8 °F 70% 29.80 in - NNW 11.5 mph - N/A   Clear
10:00 PM 80.6 °F 83.9 °F 69.8 °F 70% 29.80 in - NNW 11.5 mph - N/A   Clear
10:30 PM 80.6 °F 83.9 °F 69.8 °F 70% 29.80 in - NNW 11.5 mph - N/A   Clear